Regional Weather Roundup
Issued by NWS

Home | Current Version | Previous Version | Text Only | Print | Product List | Glossary Off
Versions: 1 2 3 4 5 6 7 8 9 10 11 12 13 14 15 16 17 18 19 20 21 22 23 24 25 26 27 28 29 30 31 32 33 34 35 36 37 38 39 40 41 42 43 44 45 46 47 48 49 50

957
ASUS43 KLSX 202310
RWRMO

WEATHER SUMMARY FOR MISSOURI
NATIONAL WEATHER SERVICE SPRINGFIELD MO
500 PM CST FRI JAN 20 2017

NOTE: "FAIR" INDICATES FEW OR NO CLOUDS BELOW 12,000 FEET WITH NO
       SIGNIFICANT WEATHER AND/OR OBSTRUCTIONS TO VISIBILITY.
       CURRENT SKY AND/OR WEATHER CONDITIONS ARE NOT AVAILABLE FOR
       CHILLICOTHE AND FARMINGTON.

MOZ001>031-035>038-043-044-053-054-210000-
...NORTHERN AND WESTERN MISSOURI...

CITY           SKY/WX    TMP DP  RH WIND       PRES   REMARKS
KANSAS CTY INT CLOUDY    49  46  90 E8        29.44S FOG
KANSAS C DTWN  CLOUDY    51  49  92 E7        29.43S
LEE`S SUMMIT   CLOUDY    53  48  83 SE5       29.44S
ST JOSEPH      CLOUDY    47  47 100 E7        29.45S FOG
CHILLICOTHE      N/A     48  48 100 E6        29.49F
KIRKSVILLE     FOG       46  46 100 E7        29.52S VSB 1/4

$$
MOZ066>068-077>081-088>096-101>105-210000-
...SOUTHWEST MISSOURI...

CITY           SKY/WX    TMP DP  RH WIND       PRES   REMARKS
SPRINGFIELD    CLEAR     63  41  44 S15       29.48R
JOPLIN         CLEAR     63  40  42 SW22      29.46R
BRANSON        CLEAR     64  41  42 S13G18    29.53R

$$
MOZ032>034-039>042-045>050-055>058-069>072-210000-
...CENTRAL MISSOURI...

CITY           SKY/WX    TMP DP  RH WIND       PRES   REMARKS
COLUMBIA       CLEAR     52  48  86 E7        29.50S
JEFFERSON CITY PTCLDY    55  47  74 E9        29.49F
ROLLA          CLEAR     55  48  77 SE8       29.50S
SEDALIA        PTCLDY    55  47  74 E8        29.45F
WHITEMAN AFB   PTCLDY    55  53  95 E5        29.43F
WARRENSBURG    CLEAR     54  45  71 E5        29.44S
OSAGE BEACH    CLEAR     59  48  67 SE7       29.48F

$$
MOZ051-052-059>065-210000-
...EAST CENTRAL MISSOURI...

CITY           SKY/WX    TMP DP  RH WIND       PRES   REMARKS
ST LOUIS INTL  MOCLDY    54  48  80 E8        29.55F
SPIRIT OF STL  MOCLDY    52  49  89 CALM      29.55S
ST CHARLES     CLOUDY    51  49  92 E9        29.55S

$$
MOZ072>076-082>087-097>100-106>115-210000-
...SOUTH CENTRAL AND SOUTHEAST MISSOURI...

CITY           SKY/WX    TMP DP  RH WIND       PRES   REMARKS
CAPE GIRARDEAU CLEAR     59  52  77 S15       29.62S
FARMINGTON     PTCLDY    56  51  84 S13       29.57S
POPLAR BLUFF   MOCLDY    61  54  77 S9        29.61S
WEST PLAINS    CLEAR     61  48  62 S10       29.56S

$$




USA.gov is the U.S. government's official web portal to all federal, state and local government web resources and services.